KN4URY Weather Reports


Display with metric or nautical units.
time (UTC)temp
F
wind
direction
speed
MPH
gust
MPH
rain 1hr
in
rain 24hr
in
rain mn
in
humidity
%
barometer
mb
20260509062331 53 341 0.0 1.0 0.00 0.01 0.00 75 1013.4
20260509061321 54 341 1.0 2.0 0.00 0.01 0.00 73 1013.6
20260509060338 54 341 1.0 3.0 0.00 0.01 0.00 74 1013.5
20260509055326 54 341 0.0 1.0 0.00 0.01 0.00 73 1013.7
20260509054313 54 341 0.0 2.0 0.00 0.01 0.00 72 1013.7
20260509053350 54 341 1.0 3.0 0.00 0.01 0.01 71 1013.7
20260509052347 54 341 0.0 3.0 0.00 0.01 0.01 70 1013.5
20260509051316 54 341 0.0 4.0 0.00 0.01 0.01 70 1013.6
20260509050333 55 341 0.0 2.0 0.00 0.01 0.01 70 1013.5
20260509045349 55 341 0.0 2.0 0.00 0.01 0.01 69 1013.5
20260509044318 55 341 0.0 2.0 0.00 0.01 0.01 68 1013.2
20260509043324 55 341 1.0 4.0 0.00 0.01 0.01 67 1013.5
20260509042333 55 341 1.0 3.0 0.00 0.01 0.01 66 1013.5
20260509041321 55 341 0.0 3.0 0.00 0.01 0.01 66 1013.4
20260509040337 56 341 0.0 3.0 0.00 0.01 0.01 64 1013.3
20260509035327 57 341 0.0 5.0 0.00 0.01 0.01 63 1013.4
20260509034342 57 341 1.0 4.0 0.00 0.01 0.01 63 1013.7
20260509033311 56 341 1.0 4.0 0.00 0.01 0.01 64 1013.7
20260509032326 56 341 1.0 2.0 0.00 0.01 0.01 63 1013.7
20260509031316 56 341 0.0 3.0 0.00 0.01 0.01 65 1013.8
20260509030333 55 341 0.0 1.0 0.00 0.01 0.01 65 1014.1
20260509025327 55 341 0.0 1.0 0.00 0.01 0.01 64 1014.2
20260509024317 55 341 0.0 1.0 0.00 0.01 0.01 65 1014.2
20260509023352 56 341 0.0 1.0 0.00 0.01 0.01 63 1014.1
20260509022322 57 341 0.0 1.0 0.00 0.01 0.01 59 1014.2
20260509021332 57 341 0.0 1.0 0.00 0.01 0.01 58 1014.2
20260509020321 57 341 0.0 2.0 0.00 0.01 0.01 58 1014.2
20260509015329 57 341 0.0 0.0 0.00 0.01 0.01 59 1014.2
20260509014345 58 341 0.0 3.0 0.00 0.01 0.01 57 1014.0
20260509013313 56 341 0.0 1.0 0.00 0.01 0.01 61 1014.1
20260509012330 56 341 0.0 1.0 0.00 0.01 0.01 63 1013.9
20260509011322 57 341 0.0 0.0 0.00 0.01 0.01 62 1013.7
20260509010338 58 341 0.0 0.0 0.00 0.01 0.01 59 1013.6
20260509005328 59 341 0.0 1.0 0.00 0.01 0.01 56 1013.5
20260509004322 59 341 0.0 0.0 0.00 0.01 0.01 55 1013.5
20260509003340 61 341 0.0 1.0 0.00 0.01 0.01 55 1013.7
20260509002352 62 341 0.0 1.0 0.00 0.01 0.01 49 1013.5
20260509001327 64 341 0.0 1.0 0.00 0.01 0.01 48 1013.5
20260509000344 66 341 0.0 1.0 0.00 0.01 0.01 44 1013.4
20260508235311 68 341 0.0 1.0 0.00 0.01 0.01 42 1013.2
20260508234326 70 341 0.0 2.0 0.00 0.01 0.01 39 1013.1
20260508233317 72 341 0.0 3.0 0.00 0.01 0.01 38 1013.1
20260508232334 72 341 0.0 3.0 0.00 0.01 0.01 38 1013.1
20260508231348 71 341 0.0 4.0 0.00 0.01 0.01 39 1012.9
20260508230341 71 341 1.0 5.0 0.00 0.01 0.01 39 1012.7
20260508225355 71 341 1.0 5.0 0.00 0.01 0.01 37 1012.8
20260508224324 71 341 1.0 8.0 0.00 0.01 0.01 37 1012.8
20260508223317 71 341 3.0 12.0 0.00 0.01 0.01 35 1012.8
20260508222334 72 341 2.0 8.0 0.00 0.01 0.01 36 1013.0
20260508221324 72 341 2.0 8.0 0.00 0.01 0.01 36 1012.9
20260508220314 72 341 2.0 11.0 0.00 0.01 0.01 36 1012.9
20260508215328 72 341 4.0 11.0 0.00 0.01 0.01 35 1013.0
20260508214333 72 341 6.0 14.0 0.00 0.01 0.01 36 1013.0
20260508213323 72 341 4.0 9.0 0.00 0.07 0.01 35 1013.3
20260508212312 72 341 4.0 9.0 0.00 0.07 0.01 36 1013.3
20260508211327 71 341 4.0 12.0 0.00 0.07 0.01 36 1013.3
20260508210315 72 341 3.0 13.0 0.00 0.07 0.01 37 1013.2
20260508205329 72 341 3.0 10.0 0.00 0.07 0.01 37 1013.2
20260508204320 72 341 2.0 8.0 0.00 0.07 0.01 38 1013.3
20260508203328 71 341 3.0 12.0 0.00 0.08 0.01 36 1013.4
20260508202334 72 341 4.0 8.0 0.00 0.08 0.01 37 1013.5
20260508201324 71 341 4.0 8.0 0.00 0.08 0.01 37 1013.7
20260508200317 72 341 3.0 7.0 0.00 0.08 0.01 38 1013.7
20260508195334 71 341 3.0 10.0 0.00 0.08 0.01 38 1013.7
20260508194323 71 341 2.0 9.0 0.00 0.08 0.01 37 1013.8
20260508193312 71 341 4.0 8.0 0.00 0.10 0.01 38 1013.7
20260508192329 71 341 2.0 10.0 0.00 0.10 0.01 36 1014.0
20260508191321 71 341 2.0 10.0 0.00 0.10 0.01 40 1014.0
20260508190336 71 341 5.0 9.0 0.00 0.10 0.01 39 1014.2
20260508185332 70 341 2.0 6.0 0.00 0.10 0.01 39 1014.5
20260508184323 70 341 3.0 8.0 0.00 0.10 0.01 36 1014.5
20260508183312 69 341 2.0 8.0 0.00 0.10 0.01 39 1014.6
20260508182326 69 341 1.0 10.0 0.00 0.10 0.01 39 1015.0
20260508181341 69 341 2.0 11.0 0.00 0.10 0.01 40 1015.1
20260508180337 69 341 5.0 9.0 0.00 0.10 0.01 38 1015.2
20260508175332 70 341 1.0 8.0 0.00 0.10 0.01 43 1015.4
20260508174320 70 341 2.0 8.0 0.00 0.10 0.01 43 1015.5
20260508173326 69 341 3.0 8.0 0.00 0.11 0.01 39 1015.7
20260508172316 68 341 1.0 8.0 0.00 0.11 0.01 35 1015.7
20260508171330 68 341 2.0 6.0 0.00 0.11 0.01 40 1015.9
20260508170319 68 341 1.0 9.0 0.00 0.11 0.01 37 1016.2
20260508165336 69 341 1.0 4.0 0.00 0.11 0.01 38 1016.3
20260508164330 67 341 1.0 4.0 0.00 0.11 0.01 43 1016.5
20260508163318 66 341 2.0 8.0 0.00 0.11 0.01 39 1016.6
20260508162333 66 341 2.0 7.0 0.00 0.11 0.01 43 1016.8
20260508161322 66 341 0.0 4.0 0.00 0.11 0.01 46 1016.9
20260508160312 66 341 2.0 4.0 0.00 0.11 0.01 46 1016.8
20260508155347 66 341 1.0 5.0 0.00 0.11 0.01 43 1017.0
20260508154314 66 341 1.0 5.0 0.00 0.11 0.01 43 1017.1
20260508153321 64 341 2.0 4.0 0.00 0.11 0.01 42 1017.0
20260508152334 65 341 1.0 3.0 0.00 0.11 0.01 49 1017.1
20260508151328 64 341 0.0 2.0 0.00 0.11 0.01 44 1017.1
20260508150316 64 341 0.0 2.0 0.00 0.11 0.01 53 1017.1
20260508145331 63 341 1.0 2.0 0.00 0.11 0.01 56 1017.2
20260508144321 62 341 2.0 7.0 0.00 0.11 0.01 51 1017.2
20260508143358 61 341 0.0 3.0 0.00 0.11 0.01 51 1017.2
20260508142324 60 341 0.0 2.0 0.00 0.11 0.01 56 1017.1
20260508141312 59 341 0.0 2.0 0.00 0.11 0.01 59 1017.0
20260508140328 58 341 1.0 4.0 0.00 0.11 0.01 68 1017.1
20260508135316 56 341 1.0 2.0 0.00 0.11 0.01 67 1017.0
20260508134332 55 341 0.0 1.0 0.00 0.11 0.01 69 1017.1
20260508133322 54 341 1.0 4.0 0.00 0.12 0.01 73 1017.3
20260508132317 53 341 0.0 2.0 0.00 0.12 0.01 84 1017.1
20260508130325 51 341 0.0 3.0 0.00 0.12 0.01 95 1017.0
20260508125316 49 341 0.0 1.0 0.00 0.12 0.01 98 1017.0
20260508124330 48 341 0.0 1.0 0.00 0.12 0.01 98 1016.9
20260508123325 47 341 0.0 1.0 0.00 0.12 0.01 98 1016.7
20260508122313 46 341 0.0 1.0 0.00 0.12 0.01 98 1016.5
20260508121321 45 341 0.0 2.0 0.00 0.12 0.01 98 1016.5
20260508120336 45 341 0.0 1.0 0.00 0.12 0.01 98 1016.4
20260508115327 45 341 0.0 0.0 0.00 0.12 0.01 98 1016.3
20260508114316 44 341 0.0 0.0 0.00 0.12 0.01 98 1016.2
20260508113325 44 341 0.0 0.0 0.00 0.14 0.01 98 1016.2
20260508112333 44 341 0.0 0.0 0.00 0.14 0.01 98 1015.9
20260508111323 42 341 0.0 0.0 0.00 0.14 0.01 98 1015.5
20260508110341 42 341 0.0 0.0 0.00 0.14 0.01 97 1015.5
20260508105338 42 341 0.0 0.0 0.00 0.14 0.01 97 1015.3
20260508104326 41 341 0.0 0.0 0.00 0.14 0.01 97 1015.2
20260508103316 42 341 0.0 0.0 0.00 0.15 0.01 97 1015.1
20260508102333 42 341 0.0 0.0 0.00 0.15 0.01 97 1014.8
20260508101323 43 341 0.0 0.0 0.00 0.15 0.01 97 1014.7
20260508100313 43 341 0.0 0.0 0.00 0.15 0.01 98 1014.5
20260508095331 44 341 0.0 1.0 0.00 0.15 0.01 98 1014.4
20260508094321 44 341 0.0 0.0 0.00 0.15 0.01 98 1014.3
20260508093332 44 341 0.0 0.0 0.00 0.15 0.01 97 1014.2
20260508092322 44 341 0.0 0.0 0.00 0.15 0.01 98 1014.0
20260508091313 44 341 0.0 1.0 0.00 0.15 0.01 98 1014.0
20260508090347 44 341 0.0 1.0 0.00 0.15 0.01 97 1014.0
20260508085331 44 341 0.0 0.0 0.00 0.15 0.01 97 1013.9
20260508084319 44 341 0.0 0.0 0.00 0.15 0.01 97 1013.8
20260508083330 44 341 0.0 0.0 0.00 0.15 0.01 97 1013.8
20260508082321 45 341 0.0 0.0 0.01 0.15 0.01 97 1013.8
20260508081336 45 341 0.0 0.0 0.01 0.15 0.01 97 1013.7
20260508080322 46 341 0.0 0.0 0.01 0.15 0.01 97 1013.5
20260508075313 46 341 0.0 0.0 0.01 0.15 0.01 97 1013.4
20260508074328 47 341 0.0 1.0 0.01 0.15 0.01 97 1013.3
20260508073318 47 341 0.0 1.0 0.01 0.15 0.01 97 1013.3
20260508072312 48 341 0.0 1.0 0.00 0.14 0.00 97 1013.2
20260508071330 48 341 1.0 2.0 0.00 0.14 0.00 97 1013.4
20260508070348 48 341 0.0 2.0 0.00 0.14 0.00 97 1013.4
20260508065315 49 341 1.0 4.0 0.00 0.14 0.00 97 1013.3
20260508064332 49 341 1.0 3.0 0.00 0.14 0.00 97 1013.3
20260508063320 49 341 1.0 5.0 0.00 0.14 0.00 98 1013.3